Regional Weather Roundup
Issued by NWS

Home | Current Version | Previous Version | Text Only | Print | Product List | Glossary On
Versions: 1 2 3 4 5 6 7 8 9 10 11 12 13 14 15 16 17 18 19 20 21 22 23 24 25 26 27 28 29 30 31 32 33 34 35 36 37 38 39 40 41 42 43 44 45 46 47 48 49 50
000
ASUS44 KBMX 300210
RWRAL

ALABAMA REGIONAL WEATHER ROUNDUP
NATIONAL WEATHER SERVICE BIRMINGHAM AL
900 PM CDT SAT AUG 29 2015

NOTE: "FAIR" INDICATES FEW OR NO CLOUDS BELOW 12,000 FEET
WITH NO SIGNIFICANT WEATHER AND/OR OBSTRUCTIONS TO VISIBILITY.

THE REMARK "TC" DENOTES TEMPERATURE IN DEGREES CELSIUS.

ALZ001>011-014-016>018-020-300300-
NORTH ALABAMA

CITY           SKY/WX    TMP DP  RH WIND       PRES   REMARKS
MUSCLE SHOALS  CLOUDY    71  67  87 E7        30.10R
HUNTSVILLE     CLOUDY    73  68  84 SE5       30.12R
DECATUR        CLOUDY    71  70  96 E5        30.12R
HALEYVILLE     FAIR      69  69 100 CALM      30.13R
GADSDEN        CLOUDY    70  64  83 CALM      30.11F
$$

ALZ012-013-022-023-030>036-040>044-300300-
WEST CENTRAL ALABAMA

CITY           SKY/WX    TMP DP  RH WIND       PRES   REMARKS
TUSCALOOSA     CLOUDY    74  70  87 E7        30.07S
$$

ALZ015-024>027-033>036-040>044-300300-
CENTRAL ALABAMA

CITY           SKY/WX    TMP DP  RH WIND       PRES   REMARKS
BIRMINGHAM     CLOUDY    71  69  93 CALM      30.12R
MONTGOMERY     CLOUDY    74  70  87 CALM      30.09F
SHELBY CO ARPT CLOUDY    71  69  93 E3        30.10S
MAXWELL AFB    CLOUDY    74  72  93 NE3       30.09S
GREENVILLE     LGT RAIN  71  68  90 E6        30.09R
$$

ALZ019-021-028-029-037-038-045>048-300300-
EAST CENTRAL ALABAMA

CITY           SKY/WX    TMP DP  RH WIND       PRES   REMARKS
ANNISTON       CLOUDY    71  69  93 E3        30.13S
ALEXANDER CITY CLOUDY    74  72  93 CALM      30.12S
AUBURN         CLOUDY    70  68  93 E8        30.13S
$$

ALZ051>064-300300-
SOUTHWEST ALABAMA

CITY           SKY/WX    TMP DP  RH WIND       PRES   REMARKS
MOBILE         PTCLDY    78  72  81 SE3       30.04R
BROOKLEY FIELD PTCLDY    80  72  76 SE8       30.04R
EVERGREEN      CLOUDY    73  69  87 E5        30.08R
$$

ALZ049-050-065>069-300300-
SOUTHEAST ALABAMA

CITY           SKY/WX    TMP DP  RH WIND       PRES   REMARKS
DOTHAN         HVY RAIN  71  70  96 N6        30.13R FOG
OZARK          MOCLDY    74  69  87 NW5       30.08R
TROY           CLOUDY    73  71  93 CALM      30.10F
EUFAULA        CLOUDY    73  72  96 CALM      30.07S
$$


USA.gov is the U.S. government's official web portal to all federal, state and local government web resources and services.